Regional Weather Roundup
Issued by NWS

Home | Current Version | Previous Version | Text Only | Print | Product List | Glossary On
Versions: 1 2 3 4 5 6 7 8 9 10 11 12 13 14 15 16 17 18 19 20 21 22 23 24 25 26 27 28 29 30 31 32 33 34 35 36 37 38 39 40 41 42 43 44 45 46 47 48 49 50
000
ASUS43 KOAX 220710
RWRNE

WEATHER ROUNDUP FOR NEBRASKA
NATIONAL WEATHER SERVICE OMAHA NE
100 AM CST SUN JAN 22 2017

NOTES: SATELLITE DATA IS BEING USED TO AUGMENT CLOUD COVER ABOVE
       12000 FEET.
       "FAIR" INDICATES FEW OR NO CLOUDS BELOW 12,000 FEET WITH NO
       SIGNIFICANT WEATHER AND/OR OBSTRUCTIONS TO VISIBILITY.

  * THESE STATIONS DO NOT REPORT WEATHER SUCH AS RAIN...SNOW OR FOG.

NEZ001>004-019>022-054>056-220800-
NEBRASKA PANHANDLE

CITY           SKY/WX    TMP DP  RH WIND       PRES   REMARKS
SCOTTSBLUFF    CLOUDY    29  25  85 NW6       29.69R WCI  23
ALLIANCE       CLOUDY    25  23  92 W5        29.67R WCI  19
CHADRON        CLEAR     20  18  92 SW8       29.70R WCI  10
KIMBALL        CLOUDY    32  26  80 NW10      29.68R WCI  24
SIDNEY         CLOUDY    32  27  81 W12       29.66R WCI  23
$$

NEZ057>060-069>072-079>082-220800-
SOUTHWEST NEBRASKA

CITY           SKY/WX    TMP DP  RH WIND       PRES   REMARKS
NORTH PLATTE   CLOUDY    27  23  85 NW6       29.66R WCI  20
IMPERIAL       PTCLDY    31  26  82 NW8       29.66R WCI  23
LEXINGTON      PTCLDY    31  28  91 W7        29.63R WCI  24
MCCOOK         CLOUDY    31  27  85 NW10      29.63R WCI  22
OGALLALA       CLEAR     27  25  94 W6        29.67R WCI  20
$$

NEZ005>010-023>029-035>040-094-220800-
NORTH CENTRAL NEBRASKA

CITY           SKY/WX    TMP DP  RH WIND       PRES   REMARKS
VALENTINE      CLEAR     22  20  92 W7        29.66R WCI  13
AINSWORTH      CLEAR     29  28  96 NW6       29.64S WCI  23
BROKEN BOW     CLOUDY    34  30  85 CALM      29.63R
O`NEILL        CLEAR     32  30  92 NW8       29.63R WCI  25
ORD            CLEAR     26  22  84 NW3       29.62R
THEDFORD       CLOUDY    28  26  95 W8        29.66S WCI  19
$$

NEZ041-046>049-061>064-073>077-083>087-220800-
SOUTH CENTRAL NEBRASKA

CITY           SKY/WX    TMP DP  RH WIND       PRES   REMARKS
GRAND ISLAND   CLOUDY    32  30  92 NW7       29.61R WCI  26
AURORA         CLOUDY    32  32 100 NW9       29.60R WCI  24
HASTINGS       PTCLDY    34  32  92 NW8       29.61R WCI  27
HEBRON         CLOUDY    33  33 100 NW3       29.58R FOG
HOLDREGE       CLOUDY    33  31  92 N7        29.61S WCI  27
KEARNEY *      PTCLDY   N/A N/A N/A MISG        N/A
YORK           CLEAR     32  32 100 NW3       29.59S
$$

NEZ011>018-030>034-042>045-220800-
NORTHEAST NEBRASKA

CITY           SKY/WX    TMP DP  RH WIND       PRES   REMARKS
NORFOLK        CLEAR     26  24  92 W6        29.61R WCI  19
ALBION         CLEAR     31  26  80 NW7       29.62R WCI  25
BLAIR          CLEAR     33  31  93 N10       29.58R WCI  25
FREMONT        CLEAR     32  32 100 CALM      29.60R
TEKAMAH        CLEAR     31  29  92 N5        29.60F FOG     WCI  26
WAYNE          CLEAR     26  25  96 CALM      29.62R FOG
$$

NEZ050>053-065>068-078-088>093-220800-
SOUTHEAST NEBRASKA

CITY           SKY/WX    TMP DP  RH WIND       PRES   REMARKS
LINCOLN        CLOUDY    30  29  96 N8        29.59S WCI  22
OMAHA EPPLEY   MOCLDY    32  29  88 N9        29.59R WCI  24
BEATRICE       PTCLDY    30  30  98 CALM      29.57S FOG
FALLS CITY     CLOUDY    33  33 100 NW8       29.54F WCI  26
NEBRASKA CITY  CLEAR     40  35  82 N5        29.56S
PLATTSMOUTH    CLOUDY    35  31  87 NW5       29.58R WCI  30
$$

NEZ044-045-051>053-067-220800-
OMAHA AREA

CITY           SKY/WX    TMP DP  RH WIND       PRES   REMARKS
OMAHA EPPLEY   MOCLDY    32  29  88 N9        29.59R WCI  24
BLAIR          CLEAR     33  31  93 N10       29.58R WCI  25
FREMONT        CLEAR     32  32 100 CALM      29.60R
MILLARD        CLEAR     34  32  94 NW3       29.59R
OFFUTT AFB     CLEAR     30  30 100 CALM      29.58R
PLATTSMOUTH    CLOUDY    35  31  87 NW5       29.58R WCI  30
WAHOO          FAIR      32  32  98 N8        29.59R WCI  25
$$



USA.gov is the U.S. government's official web portal to all federal, state and local government web resources and services.